DW6345 Murcia ES current weather conditions

sailwx.info

Wind from 315 at 0 knots gusting 0

Air temperature 24.4° C
Dewpoint 21.6° C

Last reported at 2015-Aug-30 04:55 UTC.
Time now 2015-Aug-30 05:56 UTC

Location: N 37°60' W 001°06'.
View on Google Maps.

See reports from other nearby stations

  
Tides and Currents Weather Stations Pressure Air Temp Water Temp Dewpoint Dewpoint Depression Visibility Wind Speed Wind Dir Waves Ship Positions
date/time (UTC)wind fromknots sea level pressurealtimeterstation pressurevisibilityair tempwater tempwave heightnotes
2015-Aug-30 04:55 315 0 gusting 0 24.4
2015-Aug-30 04:50 315 24.4
2015-Aug-30 04:45 315 0 gusting 2 24.4
2015-Aug-30 04:40 315 1 gusting 2 24.4
2015-Aug-30 04:35 315 0 gusting 2 24.4
2015-Aug-30 04:30 269 0 gusting 0 24.4
2015-Aug-30 04:25 180 24.4
2015-Aug-30 04:20 315 0 gusting 1 24.4
2015-Aug-30 04:15 270 0 gusting 1 24.4
2015-Aug-30 04:10 270 0 gusting 1 24.4
2015-Aug-30 04:05 315 0 gusting 2 24.4
2015-Aug-30 04:00 270 0 gusting 2 24.4
2015-Aug-30 03:55 273 24.4
2015-Aug-30 03:50 270 0 gusting 2 24.4
2015-Aug-30 03:45 090 1 gusting 2 24.4
2015-Aug-30 03:40 045 0 gusting 2 24.4
2015-Aug-30 03:35 276 0 gusting 2 24.4
2015-Aug-30 03:30 315 0 gusting 2 24.4
2015-Aug-30 03:25 315 0 gusting 2 24.4
2015-Aug-30 03:20 315 0 gusting 2 24.4
2015-Aug-30 03:15 313 0 gusting 2 24.4
2015-Aug-30 03:10 045 0 gusting 1 24.4
2015-Aug-30 03:05 045 0 gusting 1 24.4
2015-Aug-30 03:00 090 24.4
2015-Aug-30 02:55 048 25.0
2015-Aug-30 02:50 045 0 gusting 2 24.4
2015-Aug-30 02:45 045 0 gusting 1 25.0
2015-Aug-30 02:40 045 0 gusting 1 24.4
2015-Aug-30 02:35 048 0 gusting 1 25.0
2015-Aug-30 02:30 090 0 gusting 0 24.4
2015-Aug-30 02:25 135 0 gusting 1 25.0
2015-Aug-30 02:20 132 0 gusting 1 25.0
2015-Aug-30 02:15 177 25.0
2015-Aug-30 02:10 095 0 gusting 0 25.0
2015-Aug-30 02:05 090 25.0
2015-Aug-30 02:00 090 0 gusting 0 25.0
2015-Aug-30 01:55 315 25.0
2015-Aug-30 01:50 315 25.0
2015-Aug-30 01:45 045 0 gusting 1 25.0
2015-Aug-30 01:40 045 0 gusting 1 25.0
2015-Aug-30 01:35 310 0 gusting 0 25.0
2015-Aug-30 01:30 315 0 gusting 2 25.0
2015-Aug-30 01:25 315 0 gusting 2 25.0
2015-Aug-30 01:20 315 0 gusting 2 25.0
2015-Aug-30 01:15 315 0 gusting 1 25.0
2015-Aug-30 01:10 309 0 gusting 2 25.0
2015-Aug-30 01:05 270 0 gusting 2 25.0
2015-Aug-30 01:00 270 0 gusting 1 25.0
2015-Aug-30 00:55 270 0 gusting 1 25.0
2015-Aug-30 00:50 315 25.0
2015-Aug-30 00:45 315 0 gusting 1 25.0
2015-Aug-30 00:40 315 0 gusting 1 25.0
2015-Aug-30 00:35 045 0 gusting 2 25.0
2015-Aug-30 00:30 045 0 gusting 2 25.0
2015-Aug-30 00:25 315 0 gusting 2 25.0
2015-Aug-30 00:20 315 1 gusting 2 25.0
2015-Aug-30 00:15 315 0 gusting 2 25.0
2015-Aug-30 00:10 315 0 gusting 2 25.0
2015-Aug-30 00:05 045 25.0
2015-Aug-30 00:00 045 25.0
2015-Aug-29 23:55 135 25.0
2015-Aug-29 23:50 090 1 gusting 2 25.0
2015-Aug-29 23:45 090 25.6
2015-Aug-29 23:40 090 0 gusting 1 25.6
2015-Aug-29 23:35 090 0 gusting 1 25.6
2015-Aug-29 23:30 090 0 gusting 1 25.6
2015-Aug-29 23:25 135 0 gusting 1 25.6
2015-Aug-29 23:20 090 0 gusting 2 25.6
2015-Aug-29 23:15 113 1 gusting 4 25.6
2015-Aug-29 23:10 047 2 gusting 4 25.6
2015-Aug-29 23:05 090 1 gusting 2 25.6
2015-Aug-29 22:59 132 0 gusting 4 25.6
2015-Aug-29 22:54 135 1 gusting 4 25.6
2015-Aug-29 22:49 110 2 gusting 2 25.6
2015-Aug-29 22:44 090 2 gusting 5 25.6
2015-Aug-29 22:39 090 1 gusting 5 25.6
2015-Aug-29 22:34 090 1 gusting 2 25.6
2015-Aug-29 22:29 088 1 gusting 2 25.6
2015-Aug-29 22:24 090 2 gusting 5 25.6
2015-Aug-29 22:19 133 2 gusting 5 25.6
2015-Aug-29 22:14 090 2 gusting 5 25.6
2015-Aug-29 22:09 133 2 gusting 5 25.6
2015-Aug-29 22:04 135 2 gusting 5 25.6
2015-Aug-29 21:59 090 1 gusting 5 25.6
2015-Aug-29 21:54 090 2 gusting 5 26.1
2015-Aug-29 21:49 090 4 gusting 6 26.1
2015-Aug-29 21:44 132 2 gusting 5 26.1
2015-Aug-29 21:39 090 4 gusting 5 26.1
2015-Aug-29 21:34 092 2 gusting 5 26.1
2015-Aug-29 21:29 133 2 gusting 5 26.1
2015-Aug-29 21:24 090 2 gusting 6 26.1
2015-Aug-29 21:19 090 5 gusting 7 26.1
2015-Aug-29 21:14 090 2 gusting 7 26.1
2015-Aug-29 21:09 090 4 gusting 6 26.1
2015-Aug-29 21:04 090 2 gusting 5 26.7
2015-Aug-29 20:59 152 2 gusting 5 26.7
2015-Aug-29 20:54 090 4 gusting 6 26.7
2015-Aug-29 20:49 090 3 gusting 6 26.7
2015-Aug-29 20:44 092 2 gusting 5 26.7
2015-Aug-29 20:39 111 2 gusting 6 26.7
2015-Aug-29 20:34 093 4 gusting 6 26.7
2015-Aug-29 20:29 090 2 gusting 5 26.7
2015-Aug-29 20:24 090 2 gusting 5 26.7
2015-Aug-29 20:19 132 2 gusting 5 26.7
2015-Aug-29 20:14 137 2 gusting 6 26.7
2015-Aug-29 20:09 133 3 gusting 6 26.7
2015-Aug-29 20:04 090 4 gusting 6 26.7
2015-Aug-29 19:59 092 3 gusting 6 26.7
2015-Aug-29 19:54 090 2 gusting 6 27.2
2015-Aug-29 19:49 174 4 gusting 7 27.2
2015-Aug-29 19:44 090 4 gusting 7 27.2
2015-Aug-29 19:39 090 5 gusting 7 27.2
2015-Aug-29 19:34 131 4 gusting 6 27.2
2015-Aug-29 19:29 093 3 gusting 7 27.2
2015-Aug-29 19:24 090 3 gusting 7 27.2
2015-Aug-29 19:19 111 4 gusting 8 27.8
2015-Aug-29 19:14 090 4 gusting 8 27.8
2015-Aug-29 19:09 090 5 gusting 8 27.8
2015-Aug-29 19:04 090 2 gusting 5 27.8
2015-Aug-29 18:59 091 2 gusting 5 27.8
2015-Aug-29 18:54 045 2 gusting 5 27.8
2015-Aug-29 18:49 174 1 gusting 5 28.3
2015-Aug-29 18:44 172 1 gusting 5 28.3
2015-Aug-29 18:39 137 2 gusting 5 28.3
2015-Aug-29 18:34 132 4 gusting 6 28.3
2015-Aug-29 18:29 135 2 gusting 6 28.3
2015-Aug-29 18:24 090 4 gusting 7 28.3
2015-Aug-29 18:19 135 3 gusting 7 28.9
2015-Aug-29 18:14 177 2 gusting 6 28.9
2015-Aug-29 18:09 090 4 gusting 8 28.9
2015-Aug-29 18:04 088 4 gusting 8 28.9
2015-Aug-29 17:59 090 4 gusting 8 28.9
2015-Aug-29 17:54 090 6 gusting 10 28.9
2015-Aug-29 17:49 092 4 gusting 8 29.4
2015-Aug-29 17:44 090 6 gusting 10 29.4
2015-Aug-29 17:39 093 4 gusting 8 29.4
2015-Aug-29 17:34 135 5 gusting 8 30.0
2015-Aug-29 17:29 022 4 gusting 10 30.0
2015-Aug-29 17:24 135 6 gusting 11 30.0
2015-Aug-29 17:19 093 4 gusting 8 30.0
2015-Aug-29 17:14 092 6 gusting 10 30.0
2015-Aug-29 17:09 087 5 gusting 12 30.0
2015-Aug-29 17:04 111 6 gusting 12 30.0
2015-Aug-29 16:59 090 6 gusting 13 30.6
2015-Aug-29 16:54 090 5 gusting 10 30.6
2015-Aug-29 16:49 135 4 gusting 12 30.6
2015-Aug-29 16:44 135 7 gusting 12 30.6
2015-Aug-29 16:39 090 6 gusting 12 31.1
2015-Aug-29 16:34 093 6 gusting 11 31.1
2015-Aug-29 16:29 135 4 gusting 11 31.1
2015-Aug-29 16:24 097 5 gusting 12 31.1
2015-Aug-29 16:19 090 5 gusting 10 31.1
2015-Aug-29 16:14 137 5 gusting 10 31.1
2015-Aug-29 16:09 090 6 gusting 13 31.1
2015-Aug-29 16:04 091 4 gusting 11 31.7
2015-Aug-29 15:59 090 5 gusting 10 31.7
2015-Aug-29 15:54 090 5 gusting 13 31.7
2015-Aug-29 15:49 048 7 gusting 13 31.7
2015-Aug-29 15:44 090 5 gusting 11 31.7
2015-Aug-29 15:39 180 4 gusting 10 31.7
2015-Aug-29 15:34 093 6 gusting 14 31.7
2015-Aug-29 15:29 177 7 gusting 13 31.7
2015-Aug-29 15:24 138 6 gusting 13 31.7
2015-Aug-29 15:19 131 7 gusting 13 31.7
2015-Aug-29 15:14 090 6 gusting 13 32.2
2015-Aug-29 15:09 135 6 gusting 13 31.7
2015-Aug-29 15:04 090 6 gusting 13 31.7
2015-Aug-29 14:59 090 6 gusting 14 32.2
2015-Aug-29 14:54 132 5 gusting 13 32.2
2015-Aug-29 14:49 090 5 gusting 13 32.2
2015-Aug-29 14:44 135 6 gusting 11 32.2
2015-Aug-29 14:39 095 5 gusting 10 32.2
2015-Aug-29 14:34 135 5 gusting 12 32.2
2015-Aug-29 14:29 135 5 gusting 13 32.2
2015-Aug-29 14:24 090 6 gusting 15 32.2
2015-Aug-29 14:19 094 5 gusting 12 32.2
2015-Aug-29 14:14 094 4 gusting 11 32.2
2015-Aug-29 14:09 132 7 gusting 12 32.2
2015-Aug-29 14:04 134 4 gusting 11 32.2
2015-Aug-29 13:59 129 6 gusting 13 32.2
2015-Aug-29 13:54 090 8 gusting 13 32.8
2015-Aug-29 13:49 177 2 gusting 12 32.8
2015-Aug-29 13:44 135 6 gusting 11 32.2
2015-Aug-29 13:39 176 6 gusting 12 32.2
2015-Aug-29 13:34 176 4 gusting 8 32.2
2015-Aug-29 13:29 135 4 gusting 8 32.2
2015-Aug-29 13:24 135 2 gusting 12 32.2
2015-Aug-29 13:19 135 8 gusting 13 32.2
2015-Aug-29 13:14 090 5 gusting 11 32.2
2015-Aug-29 13:09 092 5 gusting 11 32.2
2015-Aug-29 13:04 176 2 gusting 8 32.2
2015-Aug-29 12:59 177 5 gusting 11 31.7
2015-Aug-29 12:54 090 7 gusting 13 31.7
2015-Aug-29 12:49 093 8 gusting 11 32.2
2015-Aug-29 12:44 094 4 gusting 11 31.7
2015-Aug-29 12:39 180 6 gusting 14 31.7
2015-Aug-29 12:34 178 6 gusting 11 31.7
2015-Aug-29 12:29 093 5 gusting 13 31.7
2015-Aug-29 12:24 086 4 gusting 13 31.7
2015-Aug-29 12:19 087 2 gusting 6 31.7
2015-Aug-29 12:14 343 6 gusting 11 31.7
2015-Aug-29 12:09 135 7 gusting 12 32.2
2015-Aug-29 12:04 270 0 gusting 5 31.7
2015-Aug-29 11:59 074 2 gusting 8 32.2
2015-Aug-29 11:54 090 3 gusting 8 31.7
2015-Aug-29 11:49 132 3 gusting 11 31.7
2015-Aug-29 11:44 090 5 gusting 11 31.7
2015-Aug-29 11:39 138 0 gusting 8 31.7
2015-Aug-29 11:34 178 4 gusting 13 31.7
2015-Aug-29 11:29 093 5 gusting 6 31.7
2015-Aug-29 11:24 047 3 gusting 7 31.7
2015-Aug-29 11:19 090 4 gusting 12 31.7
2015-Aug-29 11:14 138 5 gusting 8 31.7
2015-Aug-29 11:09 180 2 gusting 7 31.1
2015-Aug-29 11:04 132 3 gusting 8 31.1
2015-Aug-29 10:59 218 5 gusting 11 31.1
2015-Aug-29 10:54 132 5 gusting 11 31.1
2015-Aug-29 10:49 090 5 gusting 8 30.6
2015-Aug-29 10:44 045 4 gusting 8 30.6
2015-Aug-29 10:39 048 4 gusting 6 30.6
2015-Aug-29 10:34 090 3 gusting 8 30.6
2015-Aug-29 10:29 068 6 gusting 11 30.0
2015-Aug-29 10:24 072 3 gusting 11 30.0
2015-Aug-29 10:19 137 3 gusting 8 30.0
2015-Aug-29 10:14 139 2 gusting 6 29.4
2015-Aug-29 10:09 132 5 gusting 13 29.4
2015-Aug-29 10:04 090 6 gusting 12 29.4
2015-Aug-29 09:59 197 6 gusting 11 29.4
2015-Aug-29 09:54 090 6 gusting 10 29.4
2015-Aug-29 09:49 131 5 gusting 11 29.4
2015-Aug-29 09:44 070 7 gusting 12 29.4
2015-Aug-29 09:39 132 6 gusting 13 29.4
2015-Aug-29 09:34 135 3 gusting 8 29.4
2015-Aug-29 09:29 090 5 gusting 11 28.9
2015-Aug-29 09:24 090 6 gusting 11 28.9
2015-Aug-29 09:19 048 5 gusting 8 28.9
2015-Aug-29 09:14 090 2 gusting 8 28.9
2015-Aug-29 09:09 135 5 gusting 7 28.9
2015-Aug-29 09:04 133 3 gusting 8 28.3
2015-Aug-29 08:59 135 5 gusting 8 28.3
2015-Aug-29 08:54 087 5 gusting 8 28.9
2015-Aug-29 08:49 090 6 gusting 11 29.4
2015-Aug-29 08:44 090 5 gusting 10 29.4
2015-Aug-29 08:39 135 3 gusting 6 29.4
2015-Aug-29 08:34 085 1 gusting 5 29.4
2015-Aug-29 08:29 093 29.4
2015-Aug-29 08:24 093 0 gusting 2 29.4
2015-Aug-29 08:19 180 0 gusting 2 28.9
2015-Aug-29 08:14 132 1 gusting 5 28.9
2015-Aug-29 08:09 177 0 gusting 2 28.3
2015-Aug-29 08:04 090 0 gusting 2 28.3
2015-Aug-29 07:59 180 27.8
2015-Aug-29 07:54 270 27.8
2015-Aug-29 07:49 315 27.2
2015-Aug-29 07:44 135 0 gusting 5 26.7
2015-Aug-29 07:39 045 26.1
2015-Aug-29 07:34 315 0 gusting 2 25.6
2015-Aug-29 07:29 045 1 gusting 2 25.6
2015-Aug-29 07:24 266 25.0
2015-Aug-29 07:19 270 0 gusting 0 25.0
2015-Aug-29 07:14 270 24.4
2015-Aug-29 07:09 270 1 gusting 4 24.4
2015-Aug-29 07:04 180 1 gusting 4 24.4
2015-Aug-29 06:59 184 0 gusting 2 24.4
2015-Aug-29 06:54 270 1 gusting 2 24.4
2015-Aug-29 06:49 270 2 gusting 5 24.4
2015-Aug-29 06:44 270 2 gusting 5 24.4
2015-Aug-29 06:39 269 2 gusting 5 24.4
2015-Aug-29 06:34 270 2 gusting 5 24.4
2015-Aug-29 06:29 270 3 gusting 5 24.4
2015-Aug-29 06:24 270 0 gusting 2 24.4
2015-Aug-29 06:19 315 0 gusting 1 24.4
2015-Aug-29 06:14 315 0 gusting 1 24.4
2015-Aug-29 06:09 315 0 gusting 2 24.4
2015-Aug-29 06:04 135 24.4
2015-Aug-29 05:59 270 0 gusting 1 24.4
2015-Aug-29 05:54 315 1 gusting 2 24.4
2015-Aug-29 05:49 249 0 gusting 1 24.4
2015-Aug-29 05:44 270 0 gusting 1 24.4
2015-Aug-29 05:39 180 23.9
2015-Aug-29 05:34 270 0 gusting 1 24.4
2015-Aug-29 05:29 267 0 gusting 1 24.4
2015-Aug-29 05:24 270 0 gusting 2 24.4
2015-Aug-29 05:19 276 0 gusting 2 24.4
2015-Aug-29 05:14 270 1 gusting 2 24.4
2015-Aug-29 05:09 248 0 gusting 5 24.4
2015-Aug-29 05:04 270 2 gusting 5 24.4
2015-Aug-29 04:59 270 2 gusting 5 24.4
2015-Aug-29 04:54 202 1 gusting 4 24.4
2015-Aug-29 04:49 312 1 gusting 4 24.4
2015-Aug-29 04:44 270 1 gusting 2 24.4
2015-Aug-29 04:39 315 0 gusting 2 24.4
2015-Aug-29 04:34 315 1 gusting 2 24.4
2015-Aug-29 04:29 315 0 gusting 1 24.4
2015-Aug-29 04:24 273 0 gusting 1 24.4
2015-Aug-29 04:19 270 0 gusting 2 24.4
2015-Aug-29 04:14 270 0 gusting 2 24.4
2015-Aug-29 04:09 270 0 gusting 2 24.4
2015-Aug-29 04:04 270 1 gusting 4 24.4
2015-Aug-29 03:59 315 1 gusting 4 24.4
2015-Aug-29 03:54 315 0 gusting 2 24.4
2015-Aug-29 03:49 314 0 gusting 2 24.4
2015-Aug-29 03:44 276 0 gusting 2 24.4
2015-Aug-29 03:39 315 0 gusting 1 24.4
2015-Aug-29 03:34 275 0 gusting 2 24.4
2015-Aug-29 03:29 315 1 gusting 2 24.4
2015-Aug-29 03:24 315 0 gusting 1 24.4
2015-Aug-29 03:19 313 0 gusting 1 24.4
2015-Aug-29 03:14 094 24.4
2015-Aug-29 03:09 319 24.4
2015-Aug-29 03:04 315 1 gusting 2 24.4
2015-Aug-29 02:59 315 0 gusting 1 24.4
2015-Aug-29 02:54 315 0 gusting 2 24.4
2015-Aug-29 02:49 315 1 gusting 2 24.4
2015-Aug-29 02:44 315 0 gusting 2 24.4
2015-Aug-29 02:39 315 0 gusting 1 24.4
2015-Aug-29 02:34 309 0 gusting 2 24.4
2015-Aug-29 02:29 312 0 gusting 1 24.4
2015-Aug-29 02:24 276 0 gusting 2 23.9
2015-Aug-29 02:19 270 0 gusting 2 23.9
2015-Aug-29 02:14 270 0 gusting 1 23.9
2015-Aug-29 02:09 270 23.9
2015-Aug-29 02:04 270 23.9
2015-Aug-29 01:59 270 0 gusting 2 23.9
2015-Aug-29 01:54 315 0 gusting 1 23.9
2015-Aug-29 01:49 045 0 gusting 2 23.9
2015-Aug-29 01:44 315 0 gusting 1 23.9
2015-Aug-29 01:39 317 0 gusting 1 24.4
2015-Aug-29 01:34 315 0 gusting 1 24.4
2015-Aug-29 01:29 180 24.4
2015-Aug-29 01:24 310 0 gusting 1 24.4
2015-Aug-29 01:19 315 0 gusting 2 24.4
2015-Aug-29 01:14 315 0 gusting 1 24.4
2015-Aug-29 01:09 315 0 gusting 1 24.4
2015-Aug-29 01:04 315 0 gusting 2 24.4
2015-Aug-29 00:59 315 0 gusting 2 24.4
2015-Aug-29 00:54 315 0 gusting 2 24.4
2015-Aug-29 00:49 315 0 gusting 2 24.4
2015-Aug-29 00:44 045 0 gusting 1 24.4
2015-Aug-29 00:39 045 0 gusting 1 24.4
2015-Aug-29 00:34 045 0 gusting 0 24.4
2015-Aug-29 00:29 050 0 gusting 0 24.4
2015-Aug-29 00:24 313 0 gusting 0 24.4
2015-Aug-29 00:19 045 24.4
2015-Aug-29 00:14 135 24.4
2015-Aug-29 00:09 045 0 gusting 1 24.4
2015-Aug-29 00:04 045 0 gusting 1 24.4
2015-Aug-28 23:59 045 0 gusting 1 24.4
2015-Aug-28 23:54 319 24.4
2015-Aug-28 23:49 052 0 gusting 1 25.0
2015-Aug-28 23:44 048 0 gusting 2 25.0
2015-Aug-28 23:39 094 0 gusting 2 25.0
2015-Aug-28 23:34 048 0 gusting 2 25.0
2015-Aug-28 23:29 096 0 gusting 2 25.0
2015-Aug-28 23:24 087 0 gusting 2 25.0
2015-Aug-28 23:19 092 1 gusting 2 25.0
2015-Aug-28 23:14 090 0 gusting 2 25.0
2015-Aug-28 23:09 090 2 gusting 5 25.0
2015-Aug-28 23:04 090 2 gusting 4 25.6
2015-Aug-28 22:59 135 2 gusting 5 25.0
2015-Aug-28 22:54 090 2 gusting 4 25.0
2015-Aug-28 22:49 090 2 gusting 5 25.6
2015-Aug-28 22:44 131 2 gusting 5 25.6
2015-Aug-28 22:39 090 1 gusting 4 25.6
2015-Aug-28 22:34 090 1 gusting 4 25.6
2015-Aug-28 22:29 090 1 gusting 2 25.6
2015-Aug-28 22:24 090 1 gusting 4 25.6
2015-Aug-28 22:19 090 2 gusting 5 25.6
2015-Aug-28 22:14 090 1 gusting 5 25.6
2015-Aug-28 22:09 141 1 gusting 4 25.6
2015-Aug-28 22:04 045 2 gusting 4 26.1
2015-Aug-28 21:59 132 1 gusting 4 26.1
2015-Aug-28 21:54 090 2 gusting 4 26.1
2015-Aug-28 21:49 090 2 gusting 4 26.1
2015-Aug-28 21:44 090 1 gusting 2 26.1
2015-Aug-28 21:39 132 1 gusting 2 26.1
2015-Aug-28 21:34 090 1 gusting 4 26.1
2015-Aug-28 21:29 090 1 gusting 2 26.1
2015-Aug-28 21:24 131 1 gusting 4 26.1
2015-Aug-28 21:19 134 1 gusting 2 26.7
2015-Aug-28 21:14 052 0 gusting 2 26.7
2015-Aug-28 21:09 135 0 gusting 2 26.7
2015-Aug-28 21:04 180 0 gusting 2 26.7
2015-Aug-28 20:59 180 0 gusting 4 26.7
2015-Aug-28 20:54 180 1 gusting 4 26.7
2015-Aug-28 20:49 135 2 gusting 4 26.7
2015-Aug-28 20:44 135 1 gusting 4 26.7
2015-Aug-28 20:39 094 1 gusting 5 26.7
2015-Aug-28 20:34 135 0 gusting 2 26.7
2015-Aug-28 20:29 180 1 gusting 5 26.7
2015-Aug-28 20:24 179 1 gusting 4 26.7
2015-Aug-28 20:19 157 2 gusting 4 26.7
2015-Aug-28 20:14 180 0 gusting 4 26.7
2015-Aug-28 20:09 180 1 gusting 4 26.7
2015-Aug-28 20:04 135 1 gusting 2 26.7
2015-Aug-28 19:59 182 1 gusting 4 26.7
2015-Aug-28 19:54 095 2 gusting 5 26.7
2015-Aug-28 19:49 094 2 gusting 6 26.7
2015-Aug-28 19:44 134 1 gusting 5 27.2
2015-Aug-28 19:39 093 2 gusting 5 27.2
2015-Aug-28 19:34 090 2 gusting 5 27.2
2015-Aug-28 19:29 135 2 gusting 6 27.2
2015-Aug-28 19:24 092 3 gusting 6 27.2
2015-Aug-28 19:19 140 1 gusting 5 27.2
2015-Aug-28 19:14 132 1 gusting 2 27.8
2015-Aug-28 19:09 135 0 gusting 6 27.8
2015-Aug-28 19:04 135 2 gusting 6 27.8
2015-Aug-28 18:59 134 1 gusting 6 27.8
2015-Aug-28 18:54 133 3 gusting 7 27.8
2015-Aug-28 18:49 090 4 gusting 7 27.8
2015-Aug-28 18:44 090 2 gusting 6 28.3
2015-Aug-28 18:39 088 4 gusting 7 28.3
2015-Aug-28 18:34 090 5 gusting 7 28.3
2015-Aug-28 18:29 092 5 gusting 8 28.9
2015-Aug-28 18:24 094 6 gusting 11 28.9
2015-Aug-28 18:19 090 6 gusting 10 28.9
2015-Aug-28 18:14 090 5 gusting 11 29.4
2015-Aug-28 18:09 090 8 gusting 13 29.4
2015-Aug-28 18:04 090 8 gusting 14 29.4
2015-Aug-28 17:59 093 10 gusting 14 30.0
2015-Aug-28 17:54 090 6 gusting 13 30.0
2015-Aug-28 17:49 090 8 gusting 14 30.0
2015-Aug-28 17:44 111 7 gusting 14 30.6
2015-Aug-28 17:39 048 7 gusting 13 30.6
2015-Aug-28 17:34 090 7 gusting 17 31.1
2015-Aug-28 17:29 090 7 gusting 13 31.1
2015-Aug-28 17:24 093 6 gusting 13 31.7
2015-Aug-28 17:19 090 5 gusting 12 31.7
2015-Aug-28 17:14 090 6 gusting 11 31.7
2015-Aug-28 17:09 092 6 gusting 13 31.7
2015-Aug-28 17:04 132 5 gusting 12 31.7
2015-Aug-28 16:59 132 7 gusting 14 31.7
2015-Aug-28 16:54 090 10 gusting 14 31.7
2015-Aug-28 16:49 090 7 gusting 14 31.7
2015-Aug-28 16:44 090 7 gusting 14 31.7
2015-Aug-28 16:39 090 9 gusting 15 32.2
2015-Aug-28 16:34 090 8 gusting 13 32.2
2015-Aug-28 16:29 132 7 gusting 11 32.2
2015-Aug-28 16:24 090 5 gusting 14 32.2
2015-Aug-28 16:19 092 8 gusting 14 32.8
2015-Aug-28 16:14 090 8 gusting 15 32.8
2015-Aug-28 16:09 090 7 gusting 13 32.8
2015-Aug-28 16:04 048 6 gusting 13 32.8
2015-Aug-28 15:59 135 6 gusting 11 33.3
2015-Aug-28 15:54 049 3 gusting 8 32.8
2015-Aug-28 15:49 174 5 gusting 10 32.8
2015-Aug-28 15:44 095 5 gusting 13 32.8
2015-Aug-28 15:39 130 5 gusting 13 33.3
2015-Aug-28 15:34 092 6 gusting 12 33.3
2015-Aug-28 15:29 090 6 gusting 12 33.3
2015-Aug-28 15:24 131 5 gusting 12 33.3
2015-Aug-28 15:19 134 5 gusting 11 33.3
2015-Aug-28 15:14 088 5 gusting 13 33.3
2015-Aug-28 15:09 088 8 gusting 15 32.8
2015-Aug-28 15:04 090 6 gusting 17 32.8
2015-Aug-28 14:59 094 8 gusting 13 32.8
2015-Aug-28 14:54 133 8 gusting 14 33.3
2015-Aug-28 14:49 049 6 gusting 14 32.8
2015-Aug-28 14:44 090 6 gusting 17 32.8
2015-Aug-28 14:39 092 8 gusting 17 33.3
2015-Aug-28 14:34 048 6 gusting 13 32.8
2015-Aug-28 14:29 090 7 gusting 12 32.8
2015-Aug-28 14:24 090 6 gusting 15 32.8
2015-Aug-28 14:19 090 7 gusting 12 32.8
2015-Aug-28 14:14 132 8 gusting 13 32.8
2015-Aug-28 14:09 132 8 gusting 13 32.8
2015-Aug-28 14:04 090 8 gusting 15 32.8
2015-Aug-28 13:59 090 8 gusting 13 32.8
2015-Aug-28 13:54 090 8 gusting 13 32.8
2015-Aug-28 13:49 090 9 gusting 13 32.8
2015-Aug-28 13:44 093 9 gusting 17 32.8
2015-Aug-28 13:39 090 7 gusting 13 32.8
2015-Aug-28 13:34 090 8 gusting 13 32.8
2015-Aug-28 13:29 093 6 gusting 13 32.8
2015-Aug-28 13:24 049 7 gusting 13 32.8
2015-Aug-28 13:19 090 5 gusting 11 32.8
2015-Aug-28 13:14 087 7 gusting 13 32.8
2015-Aug-28 13:09 094 6 gusting 12 32.8
2015-Aug-28 13:04 069 5 gusting 13 32.8
2015-Aug-28 12:59 051 7 gusting 14 32.2
2015-Aug-28 12:54 090 6 gusting 12 32.2
2015-Aug-28 12:49 090 8 gusting 14 32.2
2015-Aug-28 12:44 049 8 gusting 13 32.2
2015-Aug-28 12:39 047 9 gusting 15 32.2
2015-Aug-28 12:34 090 7 gusting 13 32.2
2015-Aug-28 12:29 091 6 gusting 13 32.2
2015-Aug-28 12:24 090 7 gusting 13 32.2
2015-Aug-28 12:19 092 6 gusting 11 32.2
2015-Aug-28 12:14 090 6 gusting 13 32.2
2015-Aug-28 12:09 094 5 gusting 13 32.2
2015-Aug-28 12:04 158 6 gusting 8 32.2
2015-Aug-28 11:59 090 4 gusting 11 32.2
2015-Aug-28 11:54 090 9 gusting 14 31.7
2015-Aug-28 11:49 048 6 gusting 13 31.7
2015-Aug-28 11:44 135 6 gusting 13 31.7
2015-Aug-28 11:39 047 6 gusting 11 31.7
2015-Aug-28 11:34 173 6 gusting 13 31.7
2015-Aug-28 11:29 090 6 gusting 13 31.7
2015-Aug-28 11:24 090 6 gusting 11 31.1
2015-Aug-28 11:19 090 5 gusting 14 31.1
2015-Aug-28 11:14 089 4 gusting 13 31.1
2015-Aug-28 11:09 130 7 gusting 13 31.1
2015-Aug-28 11:04 090 6 gusting 11 31.1
2015-Aug-28 10:59 093 6 gusting 13 30.6
2015-Aug-28 10:54 040 4 gusting 11 30.6
2015-Aug-28 10:49 086 6 gusting 11 30.6
2015-Aug-28 10:44 090 6 gusting 11 30.6
2015-Aug-28 10:39 090 3 gusting 11 30.6
2015-Aug-28 10:34 090 7 gusting 12 30.6
2015-Aug-28 10:29 133 6 gusting 11 30.6
2015-Aug-28 10:24 093 5 gusting 8 30.6
2015-Aug-28 10:19 133 3 gusting 11 30.6
2015-Aug-28 10:14 090 6 gusting 11 30.6
2015-Aug-28 10:09 090 4 gusting 7 30.0
2015-Aug-28 10:04 049 4 gusting 8 30.6
2015-Aug-28 09:59 050 1 gusting 8 30.0
2015-Aug-28 09:54 089 4 gusting 8 30.0
2015-Aug-28 09:49 090 3 gusting 6 29.4
2015-Aug-28 09:44 090 2 gusting 6 29.4
2015-Aug-28 09:39 090 5 gusting 7 29.4
2015-Aug-28 09:34 100 1 gusting 6 29.4
2015-Aug-28 09:29 093 3 gusting 6 29.4
2015-Aug-28 09:24 046 1 gusting 5 29.4
2015-Aug-28 09:19 043 0 gusting 5 28.9
2015-Aug-28 09:14 134 1 gusting 6 28.9
2015-Aug-28 09:09 069 4 gusting 6 28.9
2015-Aug-28 09:04 135 0 gusting 2 28.3
2015-Aug-28 08:59 132 1 gusting 5 28.3
2015-Aug-28 08:54 271 0 gusting 4 28.3
2015-Aug-28 08:49 128 1 gusting 6 27.8
2015-Aug-28 08:44 174 1 gusting 5 27.8
2015-Aug-28 08:39 323 1 gusting 4 27.8
2015-Aug-28 08:34 313 0 gusting 2 27.2
2015-Aug-28 08:29 315 0 gusting 2 26.7
2015-Aug-28 08:24 315 0 gusting 4 26.7
2015-Aug-28 08:19 315 1 gusting 2 26.7
2015-Aug-28 08:14 265 0 gusting 2 26.1
2015-Aug-28 08:09 276 0 gusting 4 26.1
2015-Aug-28 08:04 270 2 gusting 4 25.6
2015-Aug-28 07:59 186 0 gusting 2 25.6
2015-Aug-28 07:54 270 1 gusting 5 25.0
2015-Aug-28 07:49 270 2 gusting 5 25.0
2015-Aug-28 07:44 270 2 gusting 5 25.0
2015-Aug-28 07:39 270 2 gusting 5 25.0
2015-Aug-28 07:34 315 0 gusting 2 25.0
2015-Aug-28 07:29 270 0 gusting 5 24.4
2015-Aug-28 07:24 315 1 gusting 4 24.4
2015-Aug-28 07:19 270 2 gusting 6 24.4
2015-Aug-28 07:14 226 2 gusting 5 24.4
2015-Aug-28 07:09 248 4 gusting 5 24.4
2015-Aug-28 07:04 270 2 gusting 5 24.4
2015-Aug-28 06:59 269 2 gusting 5 24.4
2015-Aug-28 06:54 270 3 gusting 5 23.9
2015-Aug-28 06:49 270 2 gusting 5 23.9
2015-Aug-28 06:44 312 0 gusting 2 23.9
2015-Aug-28 06:39 270 0 gusting 4 23.3
2015-Aug-28 06:34 270 2 gusting 5 23.3
2015-Aug-28 06:29 270 2 gusting 5 23.3
2015-Aug-28 06:24 315 1 gusting 4 23.3
2015-Aug-28 06:19 315 1 gusting 2 23.3
2015-Aug-28 06:14 270 1 gusting 2 23.3
2015-Aug-28 06:09 312 0 gusting 1 23.3
2015-Aug-28 06:04 315 23.3
2015-Aug-28 05:59 315 0 gusting 2 23.3
2015-Aug-28 05:54 315 1 gusting 2 23.3
2015-Aug-28 05:49 273 0 gusting 2 23.3
2015-Aug-28 05:44 270 0 gusting 2 23.3
2015-Aug-28 05:39 270 1 gusting 2 23.3
2015-Aug-28 05:34 270 0 gusting 4 23.3
2015-Aug-28 05:29 270 2 gusting 5 23.3
2015-Aug-28 05:24 270 2 gusting 2 23.3
2015-Aug-28 05:19 271 0 gusting 2 23.3
2015-Aug-28 05:14 270 1 gusting 2 23.3
2015-Aug-28 05:09 270 0 gusting 2 23.3
2015-Aug-28 05:04 270 0 gusting 1 23.3